TNCMTKPK

Guest
Details From TNCM - St Maarten - Princess Juliana Intl
To TKPK - St. Kitts/Bradshaw Intl
Flight Number -
Tags generated
Created
Modified
Stats Distance 49 nm / 91 km
Max Altitude 2,400 ft / 732 m
Waypoints 3
Social Downloads 0
Likes 0
Share VATSIM

Download

Looking for another format? Having issues loading an existing format? Contact us
Advertisement - Login to hide

Notes

Basic altitude profile: - Ascent Rate: 2200ft/min - Ascent Speed: 210kts - Cruise Altitude: 15000ft - Cruise Speed: 375kts - Descent Rate: 3000ft/min - Descent Speed: 230kts Options: - Use NATs: yes - Use PACOTS: yes - Use low airways: yes - Use high airways: yes

Route

TNCM TIKAL TKPK

ID Type Via Altitude Latitude Longitude Leg Dist Tot Dist Heading (true) Name
O TNCM APT - 0 ft / 0 m 18.04089˚ -63.10897˚ - 0 nm - St Maarten - Princess Juliana Intl
TIKAL FIX - 2,400 ft / 732 m 17.47381˚ -62.81800˚ 37 nm 37 nm 154° / 154° -
O TKPK APT - 0 ft / 0 m 17.31119˚ -62.71867˚ 11 nm 49 nm 150° / 150° St. Kitts/Bradshaw Intl

Altitude Profile

Advertisement - Login to hide

TNCM

Details ICAO TNCM (SXM)
Name St Maarten - Princess Juliana Intl
Region Caribbean Netherlands, Aruba, Curaçao, Sint Maarten
Timezone Unknown (UTC+0.0)
Stats Elevation 12 ft / 4 m (AMSL)
Location 18.040889° -63.108974°
Runways 1
Magnetic Variation 14.325° W

METAR

TNCM 161300Z 06012KT 030V090 9999 SCT018 27/23 Q1019 A3009 NOSIG

Decode

TAF

TAF TNCM 161129Z 1612/1712 06011KT P6SM VCSH SCT018 SCT035 FM161450 08017KT P6SM SCT024 FM162300 07012KT P6SM VCSH FEW018 SCT040

Decode

Departure Runways

ID Width Length Bearing (true) Bearing (mag) Surface Threshold Offset Overrun Length
10 148 ft / 45 m 7,464 ft / 2,275 m 81.43° 95.76° Asphalt 0 ft / 0 m 151 ft / 46 m
28 148 ft / 45 m 7,464 ft / 2,275 m 261.44° 275.77° Asphalt 397 ft / 121 m 0 ft / 0 m

TKPK

Details ICAO TKPK (SKB)
Name St. Kitts/Bradshaw Intl
Region Saint Kitts and Nevis
Timezone America/St_Kitts (UTC-4.0)
Stats Elevation 170 ft / 52 m (AMSL)
Location 17.311194° -62.718666°
Runways 1
Magnetic Variation 14.451° W

METAR

TKPK 161300Z 06014KT 9999 SCT019 28/23 Q1018

Decode

TAF

TAF TKPK 161129Z 1612/1712 04011KT P6SM VCSH SCT018 SCT035 FM161450 06016KT P6SM SCT024 FM162300 05012KT P6SM VCSH FEW018 SCT040

Decode

Destination Runways

ID Width Length Bearing (true) Bearing (mag) Surface Threshold Offset Overrun Length
07 148 ft / 45 m 7,620 ft / 2,323 m 56.95° 71.40° Asphalt 200 ft / 61 m 0 ft / 0 m
25 148 ft / 45 m 7,620 ft / 2,323 m 236.95° 251.40° Asphalt 0 ft / 0 m 0 ft / 0 m

Popular Alternatives